Weather in Gryaz'

Russia / Moscow Oblast     55°44′43″N   36°56′28″E
temp.,
°C
wind,
m/s
gust,
m/s
humid.,
%
clouds,
%
prec.,
mm/h
press.,
hPa
HPBL,
m
27 july, tue
tue2700:00+20ssw015972 0.0 102111
03:00+18nne116890 0.0 102212
06:00+17ne11730 0.0 102115
09:00+24e11470 0.0 1020469
12:00+28nne12350 0.0 10201924
15:00+28nw133215 0.0 10192658
18:00+27e11394 0.0 10171057
21:00+19ssw226796 0.0 101827
28 july, wed
wed2800:00+18sw237599 0.0 101853
03:00+17ssw228299 0.1 101726
06:00+17ssw1280100 0.0 101663
09:00+22s246491 0.1 1015390
12:00+25sse455298 0.0 1014987
15:00+20s3871100 0.0 1013452
18:00+17sse41285100 0.3 1011533
21:00+16se2796100 1.4 1009249
29 july, thu
thu2900:00+16sse1598100 2.8 1008292
03:00+16w3798100 2.9 1007355
06:00+17wnw389794 0.1 1007516
09:00+19wnw468265 0.1 1007741
12:00+24nw4658100 0.0 10071323
15:00+26wnw4648100 0.0 10071903
18:00+25w465553 0.0 10061071
21:00+20wsw227810 0.0 100639
30 july, fri
fri3000:00+18wsw368223 0.0 1007105
03:00+17w258414 0.0 100794
06:00+17w24855 0.0 1008104
09:00+23w23595 0.0 1008551
12:00+27wsw344677 0.0 10072117
15:00+27wsw454457 0.0 10061902
18:00+25w355583 0.0 1006860
21:00+21wsw2569100 0.1 1006104
31 july, sat
sat3100:00+18sw3777100 0.0 1006132
03:00+17sw378396 0.0 1006165
06:00+17sw3107456 0.0 1006297
09:00+22wsw486088 0.0 1006564
12:00+26wsw59370 0.0 10052196
15:00+28sw6103686 0.0 10042848
18:00+24wsw5957100 0.0 10051080
21:00+20sw3107429 0.0 1005281